Simultaneous Nadir Overpasses (SNOs) Predictions

Prediction of SNOs between METOP-A and TERRA Satellite Orbit:

Table of predicted SNOs for the next 14.0 days since TLE Epoch: 8/18/2017
Index Date (METOP-A) Time (METOP-A) Lat,Lon (METOP-A) SZA (METOP-A ) Date (TERRA) Time (TERRA) Lat,Lon (TERRA) SZA (TERRA ) Distance(km) Time Diff (sec)
1 08/20/2017 16:02:39 -81.35, 167.22 108.06 08/20/2017 16:03:38 -81.34, 167.05 108.06 3.04 59
2 08/20/2017 16:53:19 81.35, -25.31 71.97 08/20/2017 16:53:04 81.35, -25.19 71.97 2.18 15
3 08/23/2017 11:36:59 -81.35,-126.23 107.09 08/23/2017 11:37:54 -81.35,-126.40 107.08 2.75 55
4 08/23/2017 12:27:38 81.35, 41.21 72.94 08/23/2017 12:27:19 81.35, 41.35 72.95 2.38 19
5 08/26/2017 07:11:18 -81.35, -59.70 106.09 08/26/2017 07:12:09 -81.36, -59.80 106.07 1.66 51
6 08/26/2017 08:01:57 81.36, 108.12 73.99 08/26/2017 08:01:35 81.36, 107.94 73.96 3.12 22
7 08/29/2017 02:45:39 -81.35, 6.42 105.12 08/29/2017 02:46:26 -81.35, 6.46 105.09 0.74 47
8 08/29/2017 03:36:18 81.35, 174.23 74.96 08/29/2017 03:35:52 81.35, 174.18 74.94 0.85 26
9 08/31/2017 22:19:59 -81.35, 72.92 104.08 08/31/2017 22:20:43 -81.34, 72.77 104.08 2.80 44




NCC Satellite Simultaneous Nadir Overpasses (SNOs) Prediction Service
